CST,Max TemperatureF,Mean TemperatureF,Min TemperatureF,Max Dew PointF,MeanDew PointF,Min DewpointF,Max Humidity, Mean Humidity, Min Humidity, Max Sea Level PressureIn, Mean Sea Level PressureIn, Min Sea Level PressureIn, Max VisibilityMiles, Mean VisibilityMiles, Min VisibilityMiles, Max Wind SpeedMPH, Mean Wind SpeedMPH, Max Gust SpeedMPH,PrecipitationIn, CloudCover, Events, WindDirDegrees
2013-2-1,33,20,7,14,7,0,73,56,39,30.50,30.37,30.22,10,10,10,16,8,20,0.00,0,,143
2013-2-2,50,38,26,33,26,14,78,64,50,30.22,30.18,30.13,10,10,7,18,9,24,0.02,2,Rain,245
2013-2-3,50,42,33,29,24,18,75,52,29,30.27,30.14,29.96,10,10,10,25,10,30,0.00,0,,266
2013-2-4,60,46,31,40,32,23,82,60,37,29.96,29.88,29.82,10,10,10,23,13,31,0.02,3,Rain,255
2013-2-5,61,44,26,36,29,25,92,62,32,30.09,30.00,29.93,10,10,7,20,7,27,0.00,0,,240
2013-2-6,58,46,33,37,32,27,75,57,39,30.15,30.06,29.97,10,10,10,24,15,31,0.00,0,,140
2013-2-7,53,47,40,50,43,37,100,83,66,30.10,29.95,29.88,10,7,0,25,11,30,0.26,8,Fog-Rain-Thunderstorm,328
2013-2-8,47,40,32,35,29,27,96,75,53,30.32,30.25,30.12,10,10,6,22,10,25,0.00,4,,34
2013-2-9,42,37,32,35,30,28,92,76,60,30.25,30.10,29.86,10,9,5,30,19,36,0.11,6,Rain,145
2013-2-10,60,49,38,52,38,24,93,62,30,29.99,29.73,29.63,10,9,4,31,21,40,0.13,5,Rain-Thunderstorm,190
2013-2-11,49,39,28,26,25,22,72,53,34,30.18,30.13,30.01,10,10,10,14,7,22,0.00,0,,280
2013-2-12,46,35,24,34,29,21,96,71,45,30.18,30.03,29.94,10,8,2,16,5,19,0.07,6,Rain-Snow,34
2013-2-13,47,39,31,33,32,30,100,77,53,29.99,29.94,29.91,10,6,0,18,9,23,0.06,5,Fog-Snow,259
2013-2-14,54,45,35,31,28,23,70,53,35,30.14,30.02,29.91,10,10,10,15,9,20,0.00,2,,290
2013-2-15,42,32,22,29,17,9,78,54,30,30.32,30.27,30.15,10,10,10,21,10,24,0.00,2,,318
2013-2-16,36,27,17,22,19,14,88,64,40,30.34,30.25,30.14,10,8,2,13,6,16,0.01,7,Snow,317
2013-2-17,62,46,30,31,24,18,63,45,27,30.13,29.97,29.82,10,10,10,22,13,29,0.00,1,,163
2013-2-18,58,45,31,51,39,22,89,71,53,30.08,29.74,29.57,10,9,2,33,19,46,0.20,6,Rain-Thunderstorm,226
2013-2-19,41,32,23,20,15,10,74,51,28,30.32,30.24,30.10,10,10,10,23,10,28,0.00,0,,308
2013-2-20,33,28,23,15,9,7,55,45,35,30.35,30.26,30.13,10,10,9,13,8,23,T,6,Snow,75
2013-2-21,33,31,28,32,25,15,92,73,53,30.14,29.87,29.71,10,7,1,31,15,39,0.62,8,Rain-Thunderstorm,114
2013-2-22,34,28,21,31,21,18,96,80,63,30.12,30.02,29.84,10,10,7,25,10,33,T,4,,264
2013-2-23,38,28,17,21,19,15,92,70,48,30.11,30.04,29.99,10,10,9,13,3,15,0.00,0,,285
2013-2-24,53,38,23,32,27,18,81,63,45,30.04,29.97,29.90,10,10,10,22,12,26,0.00,0,,134
2013-2-25,45,40,34,33,29,24,76,61,45,29.93,29.67,29.42,10,8,2,37,16,44,0.45,6,Rain-Snow-Thunderstorm,65
2013-2-26,35,34,32,32,31,30,100,95,89,29.83,29.51,29.33,10,4,0,23,14,29,0.33,8,Fog-Rain-Snow,325
2013-2-27,33,32,31,29,27,25,92,82,72,30.04,29.92,29.78,10,6,2,22,13,29,T,8,Snow,287
2013-2-28,32,30,28,25,24,23,85,79,72,30.19,30.13,30.00,10,9,7,21,11,24,0.00,7,,312